Home > Weather > Kashan > Past weeks

Flag for Iran Weather for the Past 2 Weeks in Kashan, Iran

Now
39 °F

Sunny.


Feels Like: 34 °F
Forecast: 26 / 45 °F
Wind: 7 mph from Northwest

Location: Kashan Airport

Current Time: Feb 10, 2016 at 12:30:47 PM

Latest Report: Feb 10, 2016 at 11:30 AM


Visibility: 10 mi

Pressure: 30.42 "Hg (27.09 "Hg at 939m altitude)

Humidity: 36%

Dew point: 14 °F

Location of KashanLocation

Historic Weather in Kashan — Graph

°F

Kashan Temperature Yesterday

Maximum temperature yesterday: 46 °F (at 2:30 PM)
Minimum temperature yesterday: 32 °F (at 1:30 AM)
Average temperature yesterday: 37 °F

High & Low Weather Summary for the Past Weeks

 TemperatureHumidityPressure
High66 °F (Feb 6, 4:30 PM)87% (Feb 8, 4:30 PM)30.48 "Hg (Feb 8, 4:30 PM)
Low25 °F (Jan 29, 7:30 AM)17% (Jan 26, 4:30 PM)29.89 "Hg (Feb 8, 1:30 PM)
Average42 °F44%30.21 "Hg
* Reported Jan 26 11:30 AM — Feb 10 11:30 AM, Kashan, Weather by CustomWeather, © 2016

Note: Actual official high and low records may vary slightly from our data, if they occured in-between our weather recording intervals... More about our weather records

Advertising

Kashan Weather History for the Previous 24 Hours

 ConditionsComfort  
Time TempWeatherWind HumidityBarometerVisibility
11:30 AM
Wed, Feb 10
39 °FSunny.7 mph36%30.42 "Hg10 mi
10:30 AM37 °FSunny.5 mph41%30.42 "Hg10 mi
8:30 AM28 °FSunny.No wind59%30.42 "Hg10 mi
7:30 AM25 °FSunny.No wind63%30.39 "Hg10 mi
5:30 AM27 °FClear.No wind69%30.36 "Hg10 mi
4:30 AM27 °FClear.No wind69%30.36 "Hg10 mi
2:30 AM28 °FClear.No wind64%30.36 "Hg10 mi
1:30 AM28 °FClear.No wind64%30.36 "Hg10 mi
11:30 PM
Tue, Feb 9
32 °FClear.No wind51%30.36 "Hg10 mi
10:30 PM34 °FClear.No wind48%30.36 "Hg10 mi
8:30 PM37 °FPassing clouds.12 mph48%30.36 "Hg4 mi
7:30 PM39 °FPassing clouds.14 mph45%30.36 "Hg4 mi
5:30 PM41 °FPassing clouds.14 mph42%30.30 "Hg5 mi
4:30 PM45 °FScattered clouds.9 mph37%30.27 "Hg5 mi
2:30 PM46 °FScattered clouds.7 mph32%30.27 "HgN/A
1:30 PM45 °FScattered clouds.5 mph37%30.30 "HgN/A
Weather by CustomWeather, © 2016

See weather overviewHow to use our weather pages